Weather in Onguren

Russia / Irkutsk Oblast     53°37′55″N   107°35′31″E
temp.,
°C
wind,
m/s
gust,
m/s
humid.,
%
clouds,
%
prec.,
mm/h
press.,
hPa
HPBL,
m
8 may, sat
sat823:00−5nw11945 0.0 101715
02:00−5nnw11945 0.0 101613
05:00−5ene119591 0.0 101611
08:00+2ese117956 0.0 1013251
11:00+7ssw1165100 0.0 1011963
14:00+8s1259100 0.1 10091276
17:00+7sse2364100 0.8 1009815
20:00+2sse009097 1.1 101111
9 may, sun
sun923:00+1wnw289175 0.1 1012235
02:00−1wnw239599 0.1 101347
05:00−1wnw229559 0.0 101233
08:00+3wnw1384100 0.0 1010380
11:00+6ese0275100 0.3 1009909
14:00+4sse1192100 0.9 1010502
17:00+4ese1189100 0.3 1009198
20:00+2ssw1194100 0.4 101029
10 may, mon
mon1023:00+2w1198100 1.9 101024
02:00+1nw1699100 4.8 1010673
05:00+1nw2697100 0.6 1011421
08:00+2nw2487100 0.7 1011547
11:00+4nw3373100 0.1 1011985
14:00+3n1287100 0.9 1012499
17:00+4nw1379100 0.7 1012685
20:00+1nw228998 0.9 101350
11 may, tue
tue1123:000nw279492 0.1 1014302
02:00+1nw369790 0.1 1013336
05:000nw369780 0.0 1014362
08:00+2nnw388780 0.0 1015671
11:00+4nnw477781 0.0 10151040
14:00+7nnw576086 0.1 10131687
17:00+7nnw585925 0.1 10131539
20:00+3nw22795 0.2 101447
12 may, wed
wed1223:00−1nw228913 0.0 101627
02:00−2nw228672 0.0 101629
05:00−2nw2281100 0.0 101526
08:00+3nw2361100 0.0 1013365
11:00+7nw2353100 0.0 10101495
14:00+8w2550100 0.6 10081586
17:00+5n378683 0.9 1009724
20:00+2nnw258586 1.0 1012362